DW3383 Weather Reports


time (UTC)temp
C
wind
direction
speed
KPH
gust
KPH
rain 1hr
cm
rain 24hr
cm
rain mn
cm
humidity
%
barometer
mb
20260506230807 10 302 8.0 16.1 0.00 0.00 0.00 55 1010.9
20260506230307 10 290 8.0 14.5 0.00 0.00 0.00 55 1010.9
20260506220807 10 343 8.0 12.9 0.00 0.00 0.00 56 1010.9
20260506220309 10 303 8.0 16.1 0.00 0.00 0.00 55 1010.9
20260506210806 10 270 4.8 12.9 0.00 0.00 0.00 54 1010.8
20260506200806 9 293 8.0 12.9 0.00 0.00 0.00 57 1010.9
20260506200308 9 279 9.7 14.5 0.00 0.00 0.00 57 1011.0
20260506190808 9 278 8.0 12.9 0.00 0.00 0.00 56 1010.6
20260506190310 9 277 6.4 11.3 0.00 0.00 0.00 57 1010.7
20260506180807 8 336 4.8 9.7 0.00 0.00 0.00 60 1011.0
20260506170307 6 273 4.8 9.7 0.00 0.00 0.00 68 1011.5
20260506160806 5 151 6.4 11.3 0.00 0.00 0.00 72 1011.5
20260506160307 5 137 4.8 11.3 0.00 0.00 0.00 73 1011.5
20260506150807 3 275 4.8 4.8 0.00 0.00 0.00 79 1011.5
20260506150307 3 267 4.8 8.0 0.00 0.00 0.00 79 1011.5
20260506140806 0 262 3.2 3.2 0.00 0.00 0.00 88 1011.4
20260506140308 0 280 3.2 4.8 0.00 0.00 0.00 89 1011.3
20260506130806 -2 120 3.2 4.8 0.00 0.00 0.00 94 1010.8
20260506120806 -1 286 3.2 4.8 0.00 0.00 0.00 90 1010.2
20260506120306 -1 285 3.2 4.8 0.00 0.00 0.00 89 1010.2
20260506110807 0 268 3.2 4.8 0.00 0.00 0.00 86 1009.6
20260506110306 0 273 3.2 8.0 0.00 0.00 0.00 86 1009.8
20260506100806 1 288 3.2 4.8 0.00 0.00 0.00 82 1009.2
20260506100307 1 274 4.8 9.7 0.00 0.00 0.00 82 1009.1
20260506090307 3 273 3.2 8.0 0.00 0.00 0.00 77 1008.8
20260506080807 3 277 4.8 8.0 0.00 0.00 0.00 76 1008.0
20260506070814 5 281 9.7 11.3 0.00 0.00 0.00 70 1007.4
20260506070308 5 269 8.0 12.9 0.00 0.00 0.00 68 1007.3
20260506060806 6 270 8.0 9.7 0.00 0.00 0.00 65 1006.9
20260506060306 7 127 1.6 11.3 0.00 0.00 0.00 64 1006.8
20260506050307 8 265 3.2 9.7 0.00 0.00 0.00 61 1006.1
20260506040806 10 336 6.4 9.7 0.00 0.00 0.00 57 1005.5
20260506040307 10 284 8.0 11.3 0.00 0.00 0.00 57 1005.4
20260506030806 11 293 4.8 9.7 0.00 0.00 0.00 54 1005.0
20260506030308 11 333 3.2 11.3 0.00 0.00 0.00 54 1005.0
20260506020807 12 279 1.6 4.8 0.00 0.00 0.00 52 1004.7
20260506010806 13 293 3.2 11.3 0.00 0.00 0.00 50 1003.7
20260506010307 13 15 3.2 16.1 0.00 0.00 0.00 50 1003.7
20260506000806 15 74 3.2 11.3 0.00 0.00 0.00 47 1003.9
20260506000306 15 46 4.8 12.9 0.00 0.00 0.00 47 1003.8